FW5359 Weather Reports


Display with metric or nautical units.
time (UTC)temp
F
wind
direction
speed
MPH
gust
MPH
rain 1hr
in
rain 24hr
in
rain mn
in
humidity
%
barometer
mb
20260905140702 80 180 1.0 3.0 0.00 0.00 0.00 86 1016.2
20260905140428 80 180 1.0 3.0 0.00 0.00 0.00 87 1016.1
20260905135650 79 180 1.0 3.0 0.00 0.00 0.00 87 1016.0
20260905135144 79 180 1.0 3.0 0.00 0.00 0.00 87 1016.1
20260905134637 79 179 1.0 5.0 0.00 0.00 0.00 87 1016.0
20260905134131 79 177 1.0 5.0 0.00 0.00 0.00 87 1016.0
20260905133626 79 184 1.0 4.0 0.00 0.00 0.00 87 1016.0
20260905133120 79 184 1.0 4.0 0.00 0.00 0.00 87 1015.9
20260905132614 79 159 1.0 4.0 0.00 0.00 0.00 87 1015.9
20260905132108 79 160 1.0 4.0 0.00 0.00 0.00 88 1015.9
20260905131602 78 160 0.0 4.0 0.00 0.00 0.00 88 1015.8
20260905131326 78 159 0.0 4.0 0.00 0.00 0.00 89 1015.8
20260905130550 78 160 0.0 4.0 0.00 0.00 0.00 89 1015.6
20260905130043 78 159 0.0 4.0 0.00 0.00 0.00 89 1015.6
20260905125544 78 159 0.0 2.0 0.00 0.00 0.00 89 1015.6
20260905125042 77 159 0.0 2.0 0.00 0.00 0.00 89 1015.6
20260905124540 77 159 0.0 2.0 0.00 0.00 0.00 89 1015.5
20260905124038 77 159 0.0 2.0 0.00 0.00 0.00 89 1015.5
20260905123538 77 159 0.0 1.0 0.00 0.00 0.00 89 1015.4
20260905123310 77 159 0.0 1.0 0.00 0.00 0.00 89 1015.3
20260905122536 77 159 0.0 2.0 0.00 0.00 0.00 89 1015.3
20260905122034 77 159 0.0 2.0 0.00 0.00 0.00 89 1015.3
20260905121806 77 159 0.0 2.0 0.00 0.00 0.00 89 1015.3
20260905121034 77 159 0.0 2.0 0.00 0.00 0.00 89 1015.2
20260905120804 77 159 0.0 2.0 0.00 0.00 0.00 89 1015.2
20260905120030 78 159 0.0 1.0 0.00 0.00 0.00 89 1015.3
20260905115528 78 159 0.0 1.0 0.00 0.00 0.00 89 1015.3
20260905115025 78 159 0.0 0.0 0.00 0.00 0.00 89 1015.2
20260905114524 78 159 0.0 0.0 0.00 0.00 0.00 89 1015.2
20260905114022 78 159 0.0 0.0 0.00 0.00 0.00 89 1015.2
20260905113520 78 159 0.0 0.0 0.00 0.00 0.00 89 1015.0
20260905113251 78 159 0.0 0.0 0.00 0.00 0.00 88 1015.0
20260905112520 78 159 0.0 0.0 0.00 0.00 0.00 88 1014.9
20260905112020 78 159 0.0 4.0 0.00 0.00 0.00 88 1015.2
20260905111519 78 159 1.0 4.0 0.00 0.00 0.00 88 1015.0
20260905111020 78 159 0.0 4.0 0.00 0.00 0.00 88 1014.9
20260905110520 78 161 0.0 1.0 0.00 0.00 0.00 88 1014.9
20260905110020 78 161 0.0 4.0 0.00 0.00 0.00 88 1014.9
20260905105520 78 161 0.0 4.0 0.00 0.00 0.00 88 1014.9
20260905105020 78 161 0.0 2.0 0.00 0.00 0.00 88 1014.8
20260905104520 78 160 0.0 2.0 0.00 0.00 0.00 88 1014.9
20260905104020 78 161 0.0 2.0 0.00 0.00 0.00 88 1014.9
20260905103520 78 160 0.0 2.0 0.00 0.00 0.00 88 1014.9
20260905103020 78 160 0.0 2.0 0.00 0.00 0.00 88 1014.9
20260905102753 78 160 0.0 4.0 0.00 0.00 0.00 88 1014.9
20260905101518 78 160 0.0 2.0 0.00 0.00 0.00 88 1014.8
20260905101021 78 160 1.0 4.0 0.00 0.00 0.00 88 1014.8
20260905100516 78 160 1.0 4.0 0.00 0.00 0.00 88 1014.8
20260905100016 78 160 1.0 5.0 0.00 0.00 0.00 88 1014.8
20260905095516 78 160 1.0 5.0 0.00 0.00 0.00 88 1014.8
20260905095013 78 160 1.0 4.0 0.00 0.00 0.00 88 1014.8
20260905094007 78 160 0.0 2.0 0.00 0.00 0.00 88 1014.8
20260905093501 78 160 0.0 2.0 0.00 0.00 0.00 88 1014.8
20260905092955 78 160 0.0 1.0 0.00 0.00 0.00 88 1014.7
20260905092449 78 160 0.0 0.0 0.00 0.00 0.00 88 1014.9
20260905091943 78 160 0.0 0.0 0.00 0.00 0.00 88 1014.7
20260905091436 78 160 0.0 2.0 0.00 0.00 0.00 88 1014.6
20260905090931 78 160 0.0 4.0 0.00 0.00 0.00 88 1014.7
20260905090425 78 160 1.0 4.0 0.00 0.00 0.00 88 1014.6
20260905085919 78 160 1.0 4.0 0.00 0.00 0.00 88 1014.7
20260905085413 78 160 1.0 4.0 0.00 0.00 0.00 88 1014.7
20260905084907 78 160 0.0 4.0 0.00 0.00 0.00 87 1014.6
20260905084401 78 160 0.0 3.0 0.00 0.00 0.00 87 1014.6
20260905083855 78 160 0.0 2.0 0.00 0.00 0.00 87 1014.8
20260905083621 78 160 0.0 3.0 0.00 0.00 0.00 87 1014.8
20260905082843 78 160 0.0 3.0 0.00 0.00 0.00 87 1014.8
20260905082337 78 160 0.0 4.0 0.00 0.00 0.00 86 1014.9
20260905081830 78 160 0.0 4.0 0.00 0.00 0.00 86 1014.9
20260905081324 79 160 0.0 2.0 0.00 0.00 0.00 86 1014.9
20260905080818 79 160 0.0 2.0 0.00 0.00 0.00 85 1014.8
20260905080313 79 160 0.0 5.0 0.00 0.00 0.00 85 1014.9
20260905075807 79 160 1.0 5.0 0.00 0.00 0.00 85 1015.0
20260905075301 79 161 1.0 5.0 0.00 0.00 0.00 85 1015.0
20260905074755 79 161 1.0 5.0 0.00 0.00 0.00 85 1014.9
20260905074249 79 159 1.0 5.0 0.00 0.00 0.00 85 1015.0
20260905074015 79 159 0.0 4.0 0.00 0.00 0.00 85 1015.2
20260905073237 79 159 1.0 4.0 0.00 0.00 0.00 85 1015.2
20260905072730 79 162 1.0 5.0 0.00 0.00 0.00 84 1015.3
20260905072225 79 162 1.0 7.0 0.00 0.00 0.00 84 1015.4
20260905071718 79 159 1.0 7.0 0.00 0.00 0.00 84 1015.5
20260905071213 80 155 2.0 6.0 0.00 0.00 0.00 84 1015.4
20260905070707 80 155 1.0 6.0 0.00 0.00 0.00 84 1015.5
20260905070201 80 152 1.0 6.0 0.00 0.00 0.00 84 1015.4
20260905065925 80 150 2.0 5.0 0.00 0.00 0.00 83 1015.4
20260905065149 80 161 1.0 5.0 0.00 0.00 0.00 83 1015.5
20260905064643 80 143 1.0 3.0 0.00 0.00 0.00 83 1015.5
20260905064408 80 143 1.0 5.0 0.00 0.00 0.00 83 1015.5
20260905063631 80 142 2.0 5.0 0.00 0.00 0.00 82 1015.4
20260905063126 80 171 1.0 5.0 0.00 0.00 0.00 82 1015.5
20260905062620 80 155 1.0 7.0 0.00 0.00 0.00 82 1015.5
20260905062343 80 157 1.0 7.0 0.00 0.00 0.00 81 1015.5
20260905061607 80 165 2.0 6.0 0.00 0.00 0.00 81 1015.5
20260905061332 80 202 2.0 8.0 0.00 0.00 0.00 81 1015.5
20260905060556 81 126 2.0 9.0 0.00 0.00 0.00 80 1015.5
20260905060049 81 161 2.0 9.0 0.00 0.00 0.00 80 1015.5
20260905055543 81 153 2.0 8.0 0.00 0.00 0.00 79 1015.5
20260905055037 81 200 3.0 9.0 0.00 0.00 0.00 79 1015.5
20260905054531 81 170 3.0 9.0 0.00 0.00 0.00 78 1015.4
20260905054025 81 128 2.0 7.0 0.00 0.00 0.00 78 1015.5
20260905053519 81 155 2.0 7.0 0.00 0.00 0.00 77 1015.5
20260905053244 82 122 1.0 5.0 0.00 0.00 0.00 76 1015.5
20260905052738 82 165 2.0 5.0 0.00 0.00 0.00 76 1015.5
20260905052001 82 165 2.0 5.0 0.00 0.00 0.00 75 1015.6
20260905051727 82 166 2.0 6.0 0.00 0.00 0.00 74 1015.6
20260905051219 82 167 2.0 6.0 0.00 0.00 0.00 74 1015.5
20260905050443 82 169 2.0 10.0 0.00 0.00 0.00 73 1015.6
20260905045937 83 169 2.0 10.0 0.00 0.00 0.00 73 1015.5
20260905045432 83 150 2.0 7.0 0.00 0.00 0.00 72 1015.5
20260905045156 83 148 2.0 6.0 0.00 0.00 0.00 71 1015.5
20260905044420 83 184 3.0 11.0 0.00 0.00 0.00 70 1015.5
20260905043914 83 128 3.0 11.0 0.00 0.00 0.00 70 1015.6
20260905043407 83 151 2.0 8.0 0.00 0.00 0.00 69 1015.5
20260905043134 83 130 2.0 6.0 0.00 0.00 0.00 69 1015.5
20260905042356 83 148 2.0 7.0 0.00 0.00 0.00 69 1015.5
20260905041850 83 155 2.0 7.0 0.00 0.00 0.00 69 1015.5
20260905041616 83 128 2.0 6.0 0.00 0.00 0.00 69 1015.5
20260905040839 83 119 2.0 6.0 0.00 0.00 0.00 69 1015.3
20260905040332 83 113 1.0 4.0 0.00 0.00 0.00 69 1015.4
20260905035826 83 113 1.0 4.0 0.00 0.00 0.00 69 1015.5
20260905035320 83 113 1.0 4.0 0.00 0.00 0.00 69 1015.5
20260905034814 83 112 1.0 3.0 0.00 0.00 0.00 68 1015.4
20260905034308 83 112 2.0 6.0 0.00 0.00 0.00 68 1015.5
20260905033802 83 112 2.0 6.0 0.00 0.00 0.00 68 1015.4
20260905033256 84 110 2.0 6.0 0.00 0.00 0.00 68 1015.4
20260905032750 84 107 3.0 12.0 0.00 0.00 0.00 68 1015.3
20260905032244 83 131 2.0 12.0 0.00 0.00 0.00 68 1015.2
20260905031738 83 137 2.0 8.0 0.00 0.00 0.00 68 1015.2
20260905031503 83 120 2.0 8.0 0.00 0.00 0.00 69 1015.2
20260905030726 83 109 1.0 3.0 0.00 0.00 0.00 69 1015.0
20260905030220 83 110 1.0 4.0 0.00 0.00 0.00 69 1015.0
20260905025944 83 110 1.0 6.0 0.00 0.00 0.00 69 1015.0
20260905025208 83 108 2.0 7.0 0.00 0.00 0.00 69 1014.9
20260905024702 83 109 2.0 7.0 0.00 0.00 0.00 69 1014.8
20260905023650 83 118 2.0 7.0 0.00 0.00 0.00 69 1014.6
20260905023144 83 119 1.0 6.0 0.00 0.00 0.00 69 1014.5
20260905022644 83 91 1.0 6.0 0.00 0.00 0.00 69 1014.3
20260905022144 83 88 1.0 3.0 0.00 0.00 0.00 69 1014.4
20260905021644 83 88 1.0 3.0 0.00 0.00 0.00 69 1014.3
20260905021414 83 87 1.0 3.0 0.00 0.00 0.00 70 1014.2
20260905020642 83 87 0.0 2.0 0.00 0.00 0.00 70 1014.1
20260905020142 83 88 0.0 3.0 0.00 0.00 0.00 69 1014.0
20260905015645 83 88 1.0 3.0 0.00 0.00 0.00 69 1014.0
20260905015142 83 88 1.0 3.0 0.00 0.00 0.00 69 1014.0
20260905014640 83 88 0.0 3.0 0.00 0.00 0.00 68 1014.1
20260905014140 83 88 0.0 2.0 0.00 0.00 0.00 68 1014.0
20260905013640 84 88 0.0 2.0 0.00 0.00 0.00 68 1013.9
20260905013138 84 88 0.0 2.0 0.00 0.00 0.00 67 1013.8
20260905012638 84 88 1.0 3.0 0.00 0.00 0.00 67 1013.7
20260905012138 84 88 1.0 3.0 0.00 0.00 0.00 66 1013.8
20260905011908 85 88 0.0 0.0 0.00 0.00 0.00 66 1013.7
20260905011138 85 88 0.0 0.0 0.00 0.00 0.00 66 1013.7
20260905010636 85 88 0.0 1.0 0.00 0.00 0.00 66 1013.7
20260905010138 85 88 1.0 3.0 0.00 0.00 0.00 65 1013.7
20260905005906 85 88 1.0 3.0 0.00 0.00 0.00 65 1013.7
20260905005134 85 88 1.0 3.0 0.00 0.00 0.00 65 1013.7
20260905004906 85 88 0.0 3.0 0.00 0.00 0.00 65 1013.7
20260905004132 85 88 0.0 2.0 0.00 0.00 0.00 65 1013.6
20260905003632 86 88 1.0 2.0 0.00 0.00 0.00 65 1013.7
20260905003132 86 88 1.0 2.0 0.00 0.00 0.00 65 1013.7
20260905002632 86 88 1.0 3.0 0.00 0.00 0.00 65 1013.6
20260905002132 86 88 1.0 5.0 0.00 0.00 0.00 65 1013.6
20260905001132 86 87 1.0 5.0 0.00 0.00 0.00 64 1013.6
20260905000632 87 80 1.0 5.0 0.00 0.00 0.00 64 1013.5
20260905000132 87 74 1.0 4.0 0.00 0.00 0.00 64 1013.5
20260904235632 87 122 2.0 7.0 0.00 0.00 0.00 64 1013.3
20260904235132 87 121 2.0 7.0 0.00 0.00 0.00 64 1013.3
20260904234631 87 107 1.0 3.0 0.00 0.00 0.00 64 1013.2
20260904234132 86 94 1.0 3.0 0.00 0.00 0.00 64 1013.2
20260904233902 86 94 1.0 3.0 0.00 0.00 0.00 63 1013.2
20260904233130 86 94 1.0 3.0 0.00 0.00 0.00 63 1013.2
20260904232623 86 94 1.0 4.0 0.00 0.00 0.00 63 1013.3
20260904232117 87 93 2.0 4.0 0.00 0.00 0.00 64 1013.2
20260904231841 87 93 1.0 4.0 0.00 0.00 0.00 63 1013.2
20260904231105 87 102 1.0 4.0 0.00 0.00 0.00 63 1013.2
20260904230559 87 101 1.0 3.0 0.00 0.00 0.00 64 1013.2
20260904230053 87 101 2.0 5.0 0.00 0.00 0.00 63 1013.2
20260904225547 87 102 2.0 5.0 0.00 0.00 0.00 63 1013.3
20260904225041 87 112 1.0 5.0 0.00 0.00 0.00 63 1013.4
20260904224535 87 138 1.0 5.0 0.00 0.00 0.00 65 1013.4
20260904224027 87 85 1.0 4.0 0.00 0.00 0.00 67 1013.5
20260904223521 86 86 2.0 7.0 0.00 0.00 0.00 67 1013.5
20260904223246 87 76 2.0 7.0 0.00 0.00 0.00 68 1013.7
20260904222739 87 88 2.0 5.0 0.00 0.00 0.00 68 1013.7
20260904222002 87 85 2.0 4.0 0.00 0.00 0.00 70 1013.7
20260904221457 87 108 2.0 6.0 0.00 0.00 0.00 70 1013.8
20260904220951 87 103 3.0 8.0 0.00 0.00 0.00 70 1013.8
20260904220444 87 90 2.0 8.0 0.00 0.00 0.00 70 1013.9
20260904215939 86 94 2.0 8.0 0.00 0.00 0.00 70 1013.9
20260904215433 86 127 2.0 7.0 0.00 0.00 0.00 71 1013.9
20260904214925 86 115 2.0 7.0 0.00 0.00 0.00 71 1014.0
20260904214419 86 128 2.0 6.0 0.00 0.00 0.00 71 1014.1
20260904214145 86 86 2.0 4.0 0.00 0.00 0.00 72 1014.2
20260904213407 86 98 2.0 5.0 0.00 0.00 0.00 72 1014.2
20260904212901 86 67 2.0 6.0 0.00 0.00 0.00 73 1014.2
20260904212400 86 89 2.0 7.0 0.00 0.00 0.00 73 1014.3
20260904211849 86 117 2.0 7.0 0.00 0.00 0.00 73 1014.4
20260904210837 86 113 1.0 6.0 0.00 0.00 0.00 71 1014.4
20260904210330 86 115 1.0 6.0 0.00 0.00 0.00 71 1014.5
20260904205825 86 113 1.0 6.0 0.00 0.00 0.00 71 1014.6
20260904205319 86 113 1.0 6.0 0.00 0.00 0.00 71 1014.5
20260904204813 86 117 1.0 5.0 0.00 0.00 0.00 71 1014.6
20260904204307 86 119 2.0 5.0 0.00 0.00 0.00 71 1014.7
20260904203801 86 116 2.0 5.0 0.00 0.00 0.00 70 1014.7
20260904203255 86 128 2.0 8.0 0.00 0.00 0.00 70 1014.8
20260904202749 86 120 2.0 8.0 0.00 0.00 0.00 69 1014.9
20260904202243 87 89 2.0 7.0 0.00 0.00 0.00 69 1014.9
20260904201737 87 127 2.0 8.0 0.00 0.00 0.00 69 1014.9
20260904201230 87 93 2.0 8.0 0.00 0.00 0.00 69 1014.9
20260904200725 87 72 2.0 8.0 0.00 0.00 0.00 68 1014.9
20260904200451 87 119 2.0 8.0 0.00 0.00 0.00 68 1015.0
20260904195713 87 142 2.0 8.0 0.00 0.00 0.00 67 1014.9
20260904195207 87 100 1.0 8.0 0.00 0.00 0.00 68 1015.0
20260904194701 87 119 2.0 7.0 0.00 0.00 0.00 67 1015.0
20260904194425 87 119 2.0 7.0 0.00 0.00 0.00 67 1015.0
20260904193920 87 148 2.0 6.0 0.00 0.00 0.00 67 1015.2
20260904193143 87 136 2.0 6.0 0.00 0.00 0.00 66 1015.2
20260904192638 87 30 2.0 6.0 0.00 0.00 0.00 67 1015.3
20260904192130 87 177 2.0 7.0 0.00 0.00 0.00 66 1015.3
20260904191624 88 207 1.0 7.0 0.00 0.00 0.00 66 1015.3
20260904191118 88 93 2.0 5.0 0.00 0.00 0.00 67 1015.4
20260904190613 88 132 1.0 5.0 0.00 0.00 0.00 67 1015.4
20260904190107 87 165 1.0 6.0 0.00 0.00 0.00 68 1015.4
20260904185601 87 168 2.0 8.0 0.00 0.00 0.00 66 1015.4
20260904185055 87 116 2.0 7.0 0.00 0.00 0.00 66 1015.5
20260904184549 88 121 2.0 8.0 0.00 0.00 0.00 67 1015.5
20260904184043 88 150 2.0 8.0 0.00 0.00 0.00 66 1015.6
20260904183537 88 155 2.0 8.0 0.00 0.00 0.00 67 1015.6
20260904183030 88 169 2.0 8.0 0.00 0.00 0.00 67 1015.6
20260904182757 88 115 3.0 7.0 0.00 0.00 0.00 67 1015.7
20260904182023 88 84 3.0 7.0 0.00 0.00 0.00 66 1015.7
20260904181755 88 197 3.0 11.0 0.00 0.00 0.00 66 1015.8
20260904181021 89 210 3.0 11.0 0.00 0.00 0.00 65 1015.9
20260904180521 89 131 3.0 9.0 0.00 0.00 0.00 64 1015.9
20260904180021 89 126 3.0 9.0 0.00 0.00 0.00 65 1015.9
20260904175521 89 143 3.0 9.0 0.00 0.00 0.00 66 1015.9
20260904175020 88 126 3.0 9.0 0.00 0.00 0.00 67 1015.9
20260904174520 88 157 3.0 8.0 0.00 0.00 0.00 66 1015.9
20260904174021 88 109 3.0 12.0 0.00 0.00 0.00 68 1016.0
20260904173521 88 163 3.0 12.0 0.00 0.00 0.00 67 1016.0
20260904173021 88 117 3.0 10.0 0.00 0.00 0.00 68 1016.1
20260904172521 88 163 3.0 10.0 0.00 0.00 0.00 66 1016.2
20260904172017 88 205 3.0 9.0 0.00 0.00 0.00 67 1016.3
20260904171517 88 115 2.0 9.0 0.00 0.00 0.00 67 1016.3
20260904171017 88 136 2.0 9.0 0.00 0.00 0.00 69 1016.4
20260904170017 87 167 2.0 7.0 0.00 0.00 0.00 70 1016.4
20260904165518 87 153 3.0 7.0 0.00 0.00 0.00 70 1016.5
20260904165018 86 72 3.0 9.0 0.00 0.00 0.00 71 1016.6
20260904164517 86 169 3.0 9.0 0.00 0.00 0.00 72 1016.6
20260904164018 86 128 3.0 9.0 0.00 0.00 0.00 71 1016.6
20260904163514 86 144 2.0 9.0 0.00 0.00 0.00 71 1016.6
20260904163012 87 124 2.0 5.0 0.00 0.00 0.00 70 1016.5
20260904162513 87 101 1.0 6.0 0.00 0.00 0.00 70 1016.6
20260904162014 87 146 2.0 8.0 0.00 0.00 0.00 72 1016.5
20260904161512 86 157 2.0 8.0 0.00 0.00 0.00 73 1016.5
20260904161243 85 153 2.0 9.0 0.00 0.00 0.00 74 1016.5
20260904160509 85 157 3.0 9.0 0.00 0.00 0.00 74 1016.5
20260904160009 85 94 3.0 11.0 0.00 0.00 0.00 75 1016.6
20260904155509 85 115 3.0 11.0 0.00 0.00 0.00 74 1016.6
20260904155242 85 171 3.0 7.0 0.00 0.00 0.00 74 1016.6
20260904154509 85 171 3.0 8.0 0.00 0.00 0.00 74 1016.6
20260904154007 85 119 3.0 10.0 0.00 0.00 0.00 76 1016.5
20260904153507 84 115 3.0 10.0 0.00 0.00 0.00 77 1016.4
20260904153007 84 71 2.0 7.0 0.00 0.00 0.00 78 1016.4
20260904152509 83 123 2.0 7.0 0.00 0.00 0.00 79 1016.3
20260904152002 82 126 2.0 10.0 0.00 0.00 0.00 80 1016.2
20260904151456 82 155 2.0 10.0 0.00 0.00 0.00 79 1016.2
20260904150950 83 149 1.0 8.0 0.00 0.00 0.00 80 1016.2
20260904150444 83 225 2.0 7.0 0.00 0.00 0.00 79 1016.2
20260904145939 83 91 1.0 7.0 0.00 0.00 0.00 79 1016.2
20260904145433 82 116 2.0 7.0 0.00 0.00 0.00 81 1016.2
20260904144927 82 138 2.0 10.0 0.00 0.00 0.00 81 1016.2
20260904144422 82 146 2.0 10.0 0.00 0.00 0.00 83 1016.3
20260904143915 81 132 2.0 7.0 0.00 0.00 0.00 84 1016.2
20260904143408 80 176 3.0 8.0 0.00 0.00 0.00 84 1016.2
20260904142902 80 169 3.0 8.0 0.00 0.00 0.00 84 1016.2
20260904142356 80 217 3.0 8.0 0.00 0.00 0.00 84 1016.2
20260904141850 80 165 2.0 7.0 0.00 0.00 0.00 85 1016.2
20260904141344 80 153 2.0 9.0 0.00 0.00 0.00 85 1016.0